Location: ?ern� Novina
(50.6762°N, 14.8696°E)
Time: 07:05:05
(UTC+00:00)

SME Rocket - Visible Passes

Search period start: 22 June 2021 00:00
Search period end: 02 July 2021 00:00
Orbit: 550 x 2651 km, 99.9° (Epoch: 21 June)

Date Brightness Start Highest point End Pass type
(mag) Time Alt. Az. Time Alt. Az. Time Alt. Az.
22 Jun 8.2 00:14:23 10° NNE 00:17:08 12° N 00:20:10 10° N visible
22 Jun 7.7 20:03:25 10° N 20:13:01 34° NW 20:24:42 10° WSW visible
22 Jun 8.4 22:00:20 10° N 22:05:49 16° NNW 22:12:05 10° NW visible
22 Jun 8.3 23:54:44 10° NNE 23:57:32 12° N 00:00:36 10° NNW visible
23 Jun 7.5 01:44:37 10° ENE 01:49:44 21° NNE 01:56:18 10° N visible
23 Jun 7.5 19:42:54 10° N 19:53:11 39° NW 20:05:40 10° WSW visible
23 Jun 8.4 21:39:46 10° N 21:46:12 18° NNW 21:53:38 10° WNW visible
23 Jun 8.3 23:34:52 10° NNE 23:37:57 12° N 23:41:20 10° NNW visible
24 Jun 7.7 01:24:59 10° ENE 01:29:56 18° NNE 01:36:06 10° N visible
24 Jun 8.3 21:19:15 10° N 21:26:35 21° NNW 21:35:07 10° WNW visible
24 Jun 8.4 23:14:49 10° NNE 23:18:24 12° N 23:22:21 10° NNW visible
25 Jun 7.9 01:05:26 10° ENE 01:10:12 17° NNE 01:15:59 10° N visible
25 Jun 8.2 20:58:44 10° N 21:06:55 24° NW 21:16:30 10° WNW visible
25 Jun 8.4 22:54:38 10° NNE 22:58:52 13° N 23:03:35 10° NNW visible
26 Jun 8.0 00:45:55 10° NE 00:50:32 15° NNE 00:55:58 10° N visible
26 Jun 8.1 20:38:15 10° N 20:47:15 27° NW 20:57:48 10° W visible
26 Jun 8.4 22:34:22 10° NNE 22:39:21 14° NNW 22:44:56 10° NW visible
27 Jun 8.1 00:26:25 10° NE 00:30:54 15° NNE 00:36:05 10° NNW visible
27 Jun 7.9 20:17:46 10° NNE 20:27:33 31° NW 20:38:57 10° W visible
27 Jun 8.4 22:14:03 10° NNE 22:19:50 16° NNW 22:26:21 10° NW visible
28 Jun 8.2 00:06:53 10° NE 00:11:20 14° N 00:16:22 10° NNW visible
28 Jun 7.4 01:57:22 10° E 02:03:34 26° NE 02:11:50 10° NNW visible
28 Jun 7.8 19:57:18 10° NNE 20:07:49 35° NW 20:19:58 10° WSW visible
28 Jun 8.4 21:53:42 10° NNE 22:00:18 18° NNW 22:07:48 10° NW visible
28 Jun 8.3 23:47:17 10° NNE 23:51:46 14° N 23:56:51 10° NNW visible
29 Jun 7.5 01:37:38 10° E 01:43:46 23° NNE 01:51:42 10° NNW visible
29 Jun 8.3 21:33:20 10° NNE 21:40:46 20° NNW 21:49:13 10° WNW visible
29 Jun 8.4 23:27:34 10° NNE 23:32:16 14° N 23:37:33 10° NNW visible
30 Jun 7.7 01:18:00 10° ENE 01:24:02 21° NNE 01:31:37 10° NNW visible
30 Jun 8.3 21:12:57 10° NNE 21:21:13 22° NNW 21:30:35 10° WNW visible
30 Jun 8.4 23:07:44 10° NNE 23:12:47 14° N 23:18:27 10° NNW visible
01 Jul 7.9 00:58:26 10° ENE 01:04:22 19° NNE 01:11:36 10° NNW visible
01 Jul 8.2 20:52:35 10° NNE 21:01:39 25° NNW 21:11:52 10° W visible
01 Jul 8.4 22:47:46 10° NNE 22:53:20 15° N 22:59:31 10° NW visible
